Total_Precipitation_Accumulation
0.68 0.65 0.61 0.54 0.54 0.56 0.55 0.54 0.55 0.56 0.56 0.57 0.60 0.60 0.60 0.60 0.60 0.62 0.62 0.67 0.73 0.78 0.82 0.93 1.02 1.04 1.07 1.12 1.21 1.30 1.45 1.57 1.44 1.22 1.17 1.22 1.28 1.25 1.09 0.90 0.76 0.69 0.59
0.77 0.83 0.89 0.89 0.86 0.80 0.64 0.55 0.56 0.60 0.62 0.63 0.64 0.63 0.59 0.60 0.69 0.75 0.74 0.78 0.83 0.84 0.85 0.87 0.85 0.91 1.02 1.03 1.09 1.13 1.24 1.44 1.40 1.31 1.33 1.37 1.40 1.34 1.25 1.07 0.88 0.77 0.72
1.04 1.21 1.34 1.35 1.18 0.99 0.78 0.64 0.63 0.64 0.67 0.67 0.71 0.78 0.79 0.78 0.78 0.82 0.88 0.89 0.82 0.77 0.77 0.77 0.74 0.76 0.81 0.89 1.00 0.98 1.01 1.13 1.27 1.33 1.43 1.51 1.58 1.47 1.29 1.15 1.02 0.93 0.74
0.90 1.14 1.29 1.36 1.19 1.00 0.85 0.72 0.62 0.58 0.59 0.63 0.70 0.82 0.91 0.96 0.97 0.91 0.86 0.84 0.78 0.72 0.67 0.64 0.65 0.68 0.71 0.76 0.86 0.90 0.93 1.02 1.15 1.24 1.40 1.60 1.62 1.65 1.53 1.31 1.21 1.15 0.91
0.63 0.79 0.96 1.11 0.97 0.76 0.65 0.56 0.50 0.51 0.55 0.67 0.79 0.88 1.03 1.09 1.02 0.97 0.88 0.84 0.82 0.72 0.64 0.58 0.55 0.53 0.56 0.63 0.65 0.72 0.81 0.91 0.94 1.03 1.17 1.41 1.54 1.65 1.61 1.42 1.28 1.29 1.17
0.57 0.66 0.77 0.85 0.75 0.59 0.44 0.41 0.45 0.50 0.56 0.62 0.69 0.77 0.82 0.75 0.75 0.72 0.66 0.64 0.64 0.61 0.56 0.55 0.50 0.44 0.45 0.46 0.43 0.50 0.58 0.65 0.75 0.89 0.96 1.16 1.36 1.47 1.59 1.67 1.54 1.39 1.33
0.66 0.65 0.70 0.76 0.70 0.57 0.43 0.39 0.41 0.48 0.56 0.61 0.62 0.65 0.65 0.64 0.53 0.45 0.43 0.44 0.48 0.50 0.52 0.53 0.42 0.36 0.42 0.45 0.42 0.38 0.39 0.42 0.50 0.69 0.81 0.91 1.14 1.36 1.54 1.71 1.71 1.63 1.53
0.65 0.67 0.77 0.83 0.78 0.67 0.57 0.52 0.54 0.59 0.61 0.62 0.61 0.60 0.63 0.59 0.47 0.38 0.36 0.35 0.40 0.43 0.48 0.53 0.54 0.51 0.50 0.52 0.52 0.45 0.39 0.37 0.39 0.45 0.54 0.71 0.97 1.35 1.57 1.63 1.76 1.79 1.75
0.72 0.78 0.81 0.90 0.94 0.91 0.91 0.90 0.89 0.86 0.78 0.73 0.70 0.68 0.68 0.65 0.53 0.39 0.36 0.38 0.46 0.48 0.51 0.54 0.58 0.57 0.55 0.47 0.48 0.47 0.46 0.45 0.39 0.41 0.46 0.57 0.74 1.02 1.42 1.55 1.60 1.55 1.51
0.82 0.93 0.96 1.07 1.14 1.09 1.09 1.12 1.11 1.14 1.07 0.99 0.88 0.86 0.84 0.85 0.75 0.51 0.45 0.46 0.51 0.57 0.67 0.68 0.61 0.56 0.53 0.47 0.49 0.54 0.50 0.46 0.49 0.50 0.49 0.49 0.53 0.68 0.98 1.23 1.29 1.27 1.17
0.78 0.88 1.00 1.19 1.31 1.36 1.44 1.47 1.42 1.37 1.31 1.22 1.08 1.03 1.07 1.08 0.97 0.66 0.54 0.57 0.63 0.73 0.76 0.77 0.72 0.63 0.50 0.47 0.50 0.55 0.55 0.56 0.66 0.68 0.66 0.65 0.67 0.70 0.78 0.96 1.15 1.20 1.12
0.82 0.91 1.10 1.25 1.29 1.33 1.54 1.61 1.57 1.50 1.39 1.29 1.20 1.10 1.06 1.07 0.92 0.71 0.55 0.59 0.69 0.80 0.81 0.80 0.80 0.65 0.50 0.48 0.47 0.47 0.49 0.50 0.58 0.66 0.65 0.62 0.62 0.63 0.66 0.80 0.98 1.10 1.16
0.96 1.04 1.16 1.25 1.35 1.47 1.56 1.56 1.52 1.45 1.34 1.23 1.19 1.13 1.11 1.17 1.09 0.72 0.60 0.64 0.71 0.76 0.79 0.80 0.75 0.64 0.52 0.47 0.51 0.51 0.47 0.48 0.56 0.62 0.62 0.53 0.50 0.56 0.67 0.82 0.95 1.07 1.11
0.97 1.01 1.10 1.20 1.25 1.35 1.48 1.43 1.36 1.33 1.34 1.31 1.26 1.21 1.20 1.23 1.21 0.99 0.82 0.83 0.86 0.87 0.84 0.82 0.74 0.70 0.62 0.58 0.60 0.55 0.50 0.56 0.61 0.62 0.64 0.66 0.65 0.69 0.73 0.80 0.90 0.99 1.05
0.93 0.93 0.98 1.05 1.17 1.30 1.38 1.43 1.36 1.30 1.16 1.14 1.15 1.17 1.14 1.15 1.16 1.05 0.99 1.07 1.14 1.16 1.10 1.09 1.01 0.94 0.83 0.75 0.75 0.76 0.75 0.79 0.75 0.74 0.79 0.85 0.83 0.78 0.75 0.79 0.92 0.96 0.92
1.04 0.99 0.97 1.00 1.07 1.13 1.22 1.21 1.11 0.99 0.86 0.78 0.76 0.77 0.75 0.77 0.84 0.80 0.77 0.88 0.98 1.05 1.04 1.02 1.00 0.95 0.88 0.88 0.91 0.91 0.89 0.89 0.86 0.87 0.89 0.93 0.95 0.88 0.81 0.82 0.91 0.96 0.90
1.11 1.08 1.05 0.99 1.02 1.08 1.14 1.18 1.16 0.98 0.80 0.68 0.58 0.53 0.53 0.57 0.67 0.70 0.72 0.82 0.92 1.00 0.99 1.00 0.98 0.98 0.94 0.94 0.96 0.97 0.94 0.94 0.99 1.02 1.03 1.04 1.08 1.07 1.03 0.97 0.94 0.98 0.97
1.09 1.06 1.04 1.02 1.01 1.04 1.07 1.09 1.15 1.19 1.08 0.90 0.71 0.56 0.50 0.50 0.55 0.63 0.72 0.83 0.95 0.97 0.95 0.98 0.98 0.98 0.97 0.95 0.92 0.95 0.97 1.01 1.01 1.00 1.02 1.04 1.09 1.10 1.11 1.04 0.96 0.93 0.95
1.00 0.98 0.95 0.97 1.00 0.99 1.03 1.04 1.05 1.12 1.12 1.06 0.92 0.74 0.62 0.55 0.55 0.65 0.69 0.76 0.93 0.98 0.98 0.97 0.94 0.90 0.90 0.91 0.91 0.90 0.90 0.90 0.92 0.98 0.97 0.97 1.03 1.01 0.97 0.94 0.94 0.92 0.93
0.98 0.91 0.87 0.88 0.93 0.94 0.96 0.99 0.98 1.04 1.06 1.07 0.97 0.80 0.67 0.58 0.59 0.65 0.69 0.82 0.99 1.02 0.97 0.92 0.90 0.86 0.85 0.87 0.89 0.87 0.86 0.87 0.91 0.99 0.99 0.97 0.98 0.95 0.89 0.88 0.93 0.95 0.92
0.97 0.88 0.76 0.76 0.79 0.84 0.89 0.91 0.91 0.94 0.95 0.98 0.88 0.69 0.58 0.55 0.61 0.69 0.79 0.91 1.01 0.96 0.92 0.88 0.87 0.82 0.79 0.79 0.79 0.81 0.83 0.87 0.90 0.94 0.98 0.99 1.01 0.97 0.91 0.91 0.94 0.99 0.99
0.99 0.91 0.79 0.69 0.67 0.74 0.80 0.85 0.88 0.88 0.88 0.88 0.80 0.60 0.51 0.49 0.56 0.65 0.73 0.82 0.88 0.87 0.85 0.84 0.80 0.73 0.72 0.74 0.76 0.82 0.86 0.87 0.91 0.97 0.99 1.02 1.06 1.01 0.98 0.97 0.95 0.98 1.04
0.91 0.85 0.76 0.60 0.59 0.65 0.72 0.82 0.83 0.79 0.80 0.80 0.72 0.59 0.53 0.55 0.57 0.63 0.70 0.75 0.77 0.81 0.80 0.76 0.70 0.67 0.67 0.69 0.71 0.78 0.83 0.87 0.88 0.92 0.94 0.97 1.02 1.01 1.02 1.00 0.96 1.00 1.03
0.77 0.77 0.74 0.56 0.53 0.66 0.75 0.81 0.79 0.72 0.74 0.72 0.62 0.58 0.56 0.59 0.60 0.62 0.65 0.68 0.71 0.71 0.71 0.68 0.62 0.57 0.58 0.62 0.66 0.68 0.70 0.72 0.73 0.78 0.80 0.85 0.90 0.95 0.98 0.98 0.96 0.98 1.02
0.71 0.70 0.73 0.62 0.54 0.63 0.73 0.77 0.75 0.68 0.65 0.59 0.53 0.54 0.55 0.54 0.56 0.59 0.63 0.68 0.69 0.66 0.62 0.59 0.61 0.61 0.60 0.61 0.63 0.65 0.65 0.59 0.57 0.60 0.65 0.72 0.76 0.84 0.88 0.86 0.88 0.94 1.00
0.70 0.69 0.72 0.69 0.62 0.63 0.70 0.73 0.72 0.64 0.57 0.52 0.49 0.50 0.53 0.53 0.55 0.57 0.59 0.62 0.64 0.65 0.64 0.63 0.61 0.59 0.57 0.53 0.50 0.51 0.49 0.44 0.43 0.49 0.55 0.61 0.68 0.75 0.78 0.78 0.78 0.84 0.92